Weather History for Bentonville, AR

Change the Weather History Date:

Thursday, January 10, 2013

  Actual Average Record
Temperature  
Mean Temperature 52 °F -  
Max Temperature 57 °F 40 °F 67 °F (1960)
Min Temperature 46 °F 18 °F -15 °F (1977)
Degree Days  
Heating Degree Days 14    
Growing Degree Days 2 (Base 50)    
Moisture  
Dew Point 45 °F    
Average Humidity 83    
Maximum Humidity 94    
Minimum Humidity 62    
Precipitation  
Precipitation 0.04 in - - ()
Sea Level Pressure  
Sea Level Pressure 29.96 in    
Wind  
Wind Speed 12 mph (SE)    
Max Wind Speed 18 mph    
Max Gust Speed 28 mph    
Visibility 10 miles    
Events      
Averages and records for this station are not official NWS values.
T = Trace of Precipitation, MM = Missing Value Source: NWS Daily Summary

Daily Weather History Graph

Daily Weather History Graph

Search for Another Location

Airport:

Trip Planner

Search our weather history database for the weather conditions in past years. The results will help you decide how hot, cold, wet, or windy it might be!

Date:

Astronomy

Jan. 10, 2013 Rise Set
Actual Time 7:28 AM CST 5:20 PM CST
Civil Twilight 7:00 AM CST 5:49 PM CST
Nautical Twilight 6:28 AM CST 6:20 PM CST
Astronomical Twilight 5:57 AM CST 6:52 PM CST
Moon 6:09 AM CST (1/10) 4:29 PM CST (1/10)
Length of Visible Light 10h 48m
Length of Day
9h 52m
Waning Crescent, 2% of the Moon is Illuminated
Jan 10
Waning Crescent
Jan 11
New
Jan 18
First Quarter
Jan 26
Full
Feb 3
Last Quarter

Hourly Weather History & Observations

Time (CST) Temp. Windchill Dew Point Humidity Pressure Visibility Wind Dir Wind Speed Gust Speed Precip Events Conditions
12:15 AM 50.0 °F - 37.4 °F 62% 30.21 in 10.0 mi East 17.3 mph 21.9 mph N/A   Overcast
12:35 AM 48.2 °F - 39.2 °F 71% 30.18 in 10.0 mi East 16.1 mph 25.3 mph N/A   Scattered Clouds
12:55 AM 48.2 °F - 39.2 °F 71% 30.17 in 10.0 mi East 15.0 mph 21.9 mph N/A   Mostly Cloudy
1:15 AM 48.2 °F - 39.2 °F 71% 30.17 in 10.0 mi East 13.8 mph 27.6 mph N/A   Mostly Cloudy
1:35 AM 48.2 °F - 39.2 °F 71% 30.16 in 10.0 mi East 18.4 mph 23.0 mph N/A   Scattered Clouds
1:55 AM 48.2 °F - 39.2 °F 71% 30.16 in 10.0 mi East 18.4 mph 24.2 mph N/A   Mostly Cloudy
2:15 AM 48.2 °F - 39.2 °F 71% 30.17 in 10.0 mi East 15.0 mph 21.9 mph N/A   Overcast
2:35 AM 48.2 °F - 39.2 °F 71% 30.16 in 10.0 mi East 12.7 mph 23.0 mph N/A   Overcast
3:15 AM 46.4 °F 41.5 °F 41.0 °F 81% 30.13 in 10.0 mi East 10.4 mph 23.0 mph N/A   Overcast
3:35 AM 46.4 °F 39.8 °F 41.0 °F 81% 30.11 in 10.0 mi East 16.1 mph - N/A   Overcast
4:15 AM 46.4 °F 40.4 °F 41.0 °F 81% 30.09 in 10.0 mi East 13.8 mph 20.7 mph N/A   Overcast
4:35 AM 46.4 °F 40.7 °F 41.0 °F 81% 30.08 in 10.0 mi East 12.7 mph 17.3 mph N/A   Overcast
4:55 AM 46.4 °F 41.9 °F 41.0 °F 81% 30.08 in 10.0 mi East 9.2 mph - N/A   Overcast
5:15 AM 46.4 °F 40.7 °F 41.0 °F 81% 30.07 in 10.0 mi East 12.7 mph - N/A   Overcast
5:35 AM 46.4 °F 41.1 °F 41.0 °F 81% 30.07 in 10.0 mi East 11.5 mph - N/A   Overcast
5:55 AM 46.4 °F 41.9 °F 41.0 °F 81% 30.06 in 10.0 mi East 9.2 mph 17.3 mph N/A   Overcast
6:15 AM 46.4 °F 40.7 °F 41.0 °F 81% 30.05 in 10.0 mi East 12.7 mph 19.6 mph N/A   Overcast
6:35 AM 46.4 °F 41.1 °F 41.0 °F 81% 30.04 in 10.0 mi East 11.5 mph - N/A   Overcast
6:55 AM 46.4 °F 40.7 °F 41.0 °F 81% 30.03 in 10.0 mi East 12.7 mph - N/A   Overcast
7:55 AM 46.4 °F 40.7 °F 42.8 °F 87% 30.02 in 10.0 mi East 12.7 mph - N/A   Overcast
8:35 AM 46.4 °F 41.5 °F 42.8 °F 87% 30.03 in 9.0 mi East 10.4 mph - N/A   Overcast
8:55 AM 46.4 °F 41.9 °F 42.8 °F 87% 30.03 in 10.0 mi East 9.2 mph - N/A   Overcast
9:55 AM 48.2 °F - 44.6 °F 87% 30.00 in 10.0 mi East 10.4 mph - N/A   Overcast
10:15 AM 48.2 °F - 44.6 °F 87% 30.00 in 10.0 mi East 12.7 mph - N/A   Overcast
10:35 AM 48.2 °F - 44.6 °F 87% 29.98 in 3.0 mi East 11.5 mph - N/A   Overcast
11:15 AM 48.2 °F - 46.4 °F 93% 29.96 in 10.0 mi East 10.4 mph - N/A   Overcast
11:35 AM 50.0 °F - 46.4 °F 87% 29.93 in 10.0 mi East 8.1 mph - N/A   Overcast
11:55 AM 51.8 °F - 46.4 °F 82% 29.92 in 10.0 mi ESE 11.5 mph - N/A   Overcast
12:15 PM 53.6 °F - 48.2 °F 82% 29.90 in 10.0 mi East 10.4 mph 18.4 mph N/A   Overcast
12:35 PM 55.4 °F - 50.0 °F 82% 29.87 in 10.0 mi East 10.4 mph - N/A   Overcast
1:35 PM 55.4 °F - 51.8 °F 88% 29.85 in 8.0 mi ESE 8.1 mph - N/A   Overcast
1:55 PM 55.4 °F - 51.8 °F 88% 29.83 in 10.0 mi ESE 5.8 mph - N/A   Mostly Cloudy
2:15 PM 55.4 °F - 51.8 °F 88% 29.82 in 10.0 mi ESE 6.9 mph - N/A   Mostly Cloudy
2:35 PM 55.4 °F - 51.8 °F 88% 29.81 in 10.0 mi ESE 6.9 mph - N/A   Mostly Cloudy
2:55 PM 57.2 °F - 53.6 °F 88% 29.81 in 8.0 mi SE 9.2 mph - N/A   Overcast
3:15 PM 57.2 °F - 53.6 °F 88% 29.81 in 10.0 mi SE 8.1 mph - N/A   Overcast
3:35 PM 57.2 °F - 53.6 °F 88% 29.81 in 10.0 mi SSE 6.9 mph - N/A   Overcast
3:55 PM 57.2 °F - 53.6 °F 88% 29.81 in 10.0 mi SSE 8.1 mph - N/A   Overcast
4:35 PM 55.4 °F - 51.8 °F 88% 29.83 in 10.0 mi SW 12.7 mph 18.4 mph 0.02 in   Overcast
4:55 PM 55.4 °F - 51.8 °F 88% 29.83 in 9.0 mi WSW 8.1 mph - 0.03 in   Mostly Cloudy
5:15 PM 55.4 °F - 51.8 °F 88% 29.84 in 10.0 mi WSW 6.9 mph - N/A   Mostly Cloudy
5:55 PM 53.6 °F - 51.8 °F 94% 29.85 in 10.0 mi WSW 4.6 mph - N/A   Mostly Cloudy
6:15 PM 53.6 °F - 51.8 °F 94% 29.85 in 6.0 mi WSW 4.6 mph - N/A   Overcast
6:35 PM 53.6 °F - 50.0 °F 88% 29.85 in 10.0 mi SW 9.2 mph - 0.01 in   Mostly Cloudy
6:55 PM 53.6 °F - 48.2 °F 82% 29.84 in 10.0 mi SW 6.9 mph - 0.01 in   Mostly Cloudy
7:15 PM 51.8 °F - 48.2 °F 88% 29.83 in 10.0 mi SW 4.6 mph - N/A   Partly Cloudy
7:35 PM 51.8 °F - 46.4 °F 82% 29.84 in 10.0 mi SW 8.1 mph - N/A   Clear
7:55 PM 51.8 °F - 46.4 °F 82% 29.85 in 10.0 mi SSW 8.1 mph - N/A   Partly Cloudy
8:15 PM 51.8 °F - 46.4 °F 82% 29.85 in 10.0 mi SSW 6.9 mph - N/A   Scattered Clouds
8:56 PM 51.8 °F - 46.4 °F 82% 29.86 in 10.0 mi SSW 11.5 mph - N/A   Overcast
9:15 PM 51.8 °F - 46.4 °F 82% 29.86 in 10.0 mi SSW 11.5 mph - N/A   Mostly Cloudy
9:35 PM 51.8 °F - 44.6 °F 76% 29.86 in 10.0 mi SSW 13.8 mph - N/A   Overcast
9:55 PM 51.8 °F - 44.6 °F 76% 29.85 in 10.0 mi SSW 11.5 mph - N/A   Overcast
10:35 PM 50.0 °F - 44.6 °F 82% 29.85 in 10.0 mi SW 10.4 mph - N/A   Mostly Cloudy
10:55 PM 48.2 °F - 44.6 °F 87% 29.86 in 10.0 mi SW 10.4 mph - N/A   Mostly Cloudy
11:15 PM 50.0 °F - 44.6 °F 82% 29.86 in 10.0 mi SSW 16.1 mph 20.7 mph N/A   Overcast
11:55 PM 50.0 °F - 44.6 °F 82% 29.86 in 10.0 mi SSW 11.5 mph - N/A   Overcast